Wind_Speed
7 7 7 6 6 7 7 7 7 7 6 6 7 7 7 7 7 7 6 7 7 7 7 7 7 7 6 7 6 7 7 7 8 8 8 8 9 10 10 11 12 11 10
8 7 7 7 7 7 7 7 7 7 7 7 7 7 7 7 7 7 7 8 8 8 8 8 7 8 8 7 7 7 8 8 8 9 9 9 9 10 11 11 12 11 12
8 8 7 7 7 7 8 8 8 8 8 8 8 8 7 8 7 7 8 8 8 8 8 8 8 8 8 7 7 8 9 9 8 9 9 9 10 10 12 12 12 12 12
8 7 7 7 8 8 8 9 9 9 9 8 8 8 8 8 8 8 8 8 8 8 8 9 9 8 8 8 8 9 8 9 9 9 9 9 10 11 11 12 12 12 12
7 7 7 7 8 8 9 9 9 9 9 8 9 9 9 8 8 9 8 8 8 8 8 8 9 9 9 9 8 8 8 8 9 9 9 9 10 11 12 13 13 13 13
8 8 8 8 8 9 9 9 9 8 8 8 9 9 9 8 8 9 8 8 8 8 8 8 9 9 9 9 9 8 9 9 8 9 10 10 11 12 12 13 14 14 13
9 8 9 9 9 10 10 10 9 8 8 9 9 9 9 8 8 8 8 8 8 8 8 9 9 10 10 10 9 9 9 9 8 8 9 10 11 11 13 13 14 14 14
9 8 9 9 10 10 9 9 9 8 9 9 10 9 9 9 8 8 8 8 9 9 10 10 10 10 10 10 10 10 9 9 9 9 9 8 10 11 11 11 13 13 13
9 9 9 9 9 9 9 9 9 9 8 9 10 9 9 9 9 9 9 9 10 10 11 11 10 10 10 10 10 10 10 10 10 9 9 9 9 10 10 11 11 12 12
9 9 10 9 10 10 10 10 9 10 9 10 10 10 10 9 9 9 9 10 10 11 11 11 10 10 10 10 11 11 11 11 11 9 9 9 10 10 10 11 11 11 12
10 10 10 10 10 11 10 9 10 10 10 10 10 10 10 10 10 9 10 10 11 11 11 11 11 11 11 11 11 11 11 11 11 10 9 9 10 10 10 11 11 11 11
11 11 11 11 10 11 10 10 10 10 10 10 11 11 10 10 10 10 11 11 11 12 12 11 12 11 12 12 12 12 11 10 10 9 10 10 10 11 11 11 11 11 11
12 11 11 11 11 11 10 10 10 10 10 10 10 10 10 11 11 12 12 12 12 12 12 12 12 12 12 12 11 11 11 10 11 10 10 10 11 11 11 12 12 12 12
11 12 11 12 11 10 11 11 10 10 10 10 11 11 11 12 12 12 12 12 12 13 13 12 12 12 12 12 12 12 12 12 12 12 11 11 11 12 12 12 12 12 12
11 10 11 12 11 10 10 10 10 10 10 9 10 10 11 12 12 12 13 13 13 13 12 12 12 13 13 13 13 13 13 13 13 13 13 13 13 13 13 13 13 14 13
12 11 11 12 12 12 10 11 12 12 11 9 9 11 12 12 12 13 13 13 13 13 14 14 14 14 14 15 15 15 14 14 14 15 14 13 14 14 14 14 15 15 14
12 12 11 11 12 12 11 11 12 12 12 11 12 11 11 12 13 13 13 14 15 16 16 16 15 15 15 16 16 15 15 16 15 15 15 14 14 14 15 16 16 16 16
11 11 11 11 12 12 13 12 12 12 12 12 13 12 12 13 13 14 14 15 16 16 16 15 15 14 15 15 16 16 16 17 16 15 16 16 16 16 16 16 17 18 17
11 11 11 12 13 13 13 13 12 13 13 13 13 13 13 13 14 14 15 15 16 16 15 15 15 15 15 15 16 16 16 17 17 16 17 17 17 17 18 18 17 18 18
12 12 12 13 13 14 13 13 13 13 12 13 13 14 14 14 14 15 15 15 16 17 16 15 15 15 15 15 16 16 16 17 17 17 16 17 18 18 19 19 19 19 19
12 12 13 13 14 14 14 14 14 14 14 14 14 14 14 14 14 15 16 16 16 16 15 15 15 16 16 15 15 16 17 17 18 19 18 18 18 19 19 19 19 20 20
13 13 13 14 14 15 15 15 14 14 15 14 15 15 14 14 14 15 16 16 16 15 15 14 15 15 16 16 16 17 17 18 18 19 19 19 19 19 19 19 19 19 20
14 14 14 15 15 15 15 15 14 14 14 14 15 15 14 14 14 15 15 16 16 15 16 16 15 15 16 17 18 17 17 18 18 18 18 18 18 18 19 18 19 19 19
14 14 15 15 15 15 15 14 14 14 14 14 15 14 15 15 14 15 15 15 15 15 15 16 15 15 16 17 18 18 17 17 18 18 18 18 18 18 19 19 18 19 19
15 16 15 14 14 14 14 14 14 14 15 15 15 15 15 15 15 16 16 16 16 16 15 15 14 15 15 16 17 17 17 17 17 17 18 18 18 18 19 19 19 19 20
16 16 16 15 15 15 15 14 14 15 16 16 15 15 15 15 16 16 16 16 16 16 16 15 15 15 15 16 16 16 17 17 17 17 17 17 18 19 19 20 20 20 20
Wind_Direction
319 323 324 324 323 317 314 313 315 315 309 299 289 280 275 273 272 271 269 266 264 263 262 260 261 259 261 256 253 249 245 243 241 238 239 232 226 225 229 230 231 224 219
318 319 317 321 320 315 310 307 308 305 302 299 291 283 276 272 270 267 267 267 264 263 267 268 266 264 262 258 253 250 247 242 239 240 241 236 232 231 231 233 232 231 226
317 317 310 312 315 312 307 303 302 298 296 294 290 284 277 274 270 268 268 267 265 267 269 268 269 267 265 267 257 249 248 246 246 245 242 238 238 237 234 232 231 233 228
310 312 312 312 312 311 306 298 296 293 292 293 289 283 280 275 270 266 267 266 268 272 272 269 269 269 270 270 263 252 247 247 246 244 240 240 237 237 235 232 231 230 229
308 309 311 312 310 309 305 299 292 289 288 288 285 281 279 276 270 265 264 266 271 273 273 269 267 270 272 272 270 263 260 255 252 244 239 240 234 235 235 231 231 226 229
299 300 304 306 307 306 304 301 293 286 286 287 285 282 279 280 275 267 263 266 271 273 274 273 269 271 273 272 270 272 273 263 259 246 239 240 237 237 236 232 231 232 230
296 298 301 300 301 302 303 301 294 286 283 282 283 283 277 276 276 272 266 268 269 271 275 276 274 273 272 270 268 269 271 264 261 253 250 247 241 242 240 238 237 233 233
297 302 303 300 298 298 299 296 294 289 288 284 281 280 279 280 278 276 269 270 271 273 277 277 276 276 273 270 269 269 266 267 267 265 262 255 248 245 237 235 235 237 239
302 302 303 298 295 295 294 291 291 291 289 284 281 281 278 279 279 278 273 273 274 276 279 278 277 277 274 271 268 269 270 268 270 261 257 253 252 248 239 240 243 241 241
302 300 300 296 288 287 291 291 290 287 282 281 278 276 276 277 278 280 277 277 278 279 279 278 280 278 275 273 268 267 271 272 270 264 255 252 252 251 249 245 244 244 246
299 300 299 296 289 286 288 290 289 284 280 278 275 274 275 275 277 277 275 279 279 276 276 279 279 277 274 270 268 265 267 269 268 267 258 254 251 251 248 248 247 246 247
296 293 295 295 293 286 286 286 280 282 280 277 276 274 273 274 274 276 277 277 279 278 277 277 277 275 273 271 266 261 260 259 260 259 257 254 252 252 249 249 247 248 248
295 291 287 290 290 288 288 283 280 284 281 271 272 273 274 276 277 278 278 279 279 279 277 273 273 273 271 269 266 260 255 256 254 254 255 254 252 251 248 248 247 248 248
300 297 289 290 287 286 288 286 284 286 279 269 273 274 276 280 282 283 280 281 282 279 277 274 272 268 266 265 265 261 256 255 255 253 254 254 254 252 247 247 249 249 250
306 300 293 294 291 288 290 289 290 287 279 269 274 274 277 281 283 283 285 286 282 279 278 275 274 270 266 265 265 262 258 256 253 251 253 252 253 252 249 246 248 249 251
302 300 296 295 289 287 285 284 284 282 278 275 280 280 283 287 285 286 288 287 284 282 280 277 275 270 266 264 263 261 258 259 255 255 250 252 252 252 252 249 248 249 252
301 304 297 292 288 284 283 285 288 285 284 284 286 285 289 290 287 286 287 286 285 284 280 275 275 273 268 262 260 258 257 258 258 253 251 250 254 255 254 251 247 247 248
298 303 300 295 292 288 288 287 288 284 285 285 285 287 290 292 288 286 287 286 285 284 283 274 273 271 266 263 260 258 257 257 254 253 252 252 255 255 254 253 250 247 248
293 295 297 296 292 289 291 291 285 282 282 283 285 287 289 289 288 288 290 288 287 285 285 279 274 272 265 264 261 260 260 257 252 252 254 255 256 258 257 255 254 251 251
294 293 295 295 295 291 290 287 288 284 283 283 283 284 288 288 290 291 292 293 290 287 284 281 274 272 267 264 260 259 262 261 256 254 256 258 259 259 259 259 256 254 252
293 294 293 294 295 291 290 289 289 286 282 282 283 282 282 284 289 292 294 294 293 288 283 281 274 271 268 266 264 262 264 265 264 261 260 260 260 260 259 257 256 255 252
291 290 290 292 294 290 287 286 286 284 281 283 286 284 284 286 289 291 293 292 292 289 283 279 275 269 267 266 265 262 264 266 267 266 264 261 260 260 258 256 254 256 255
288 288 287 288 289 287 284 282 282 284 284 285 289 286 284 287 289 291 290 290 288 287 283 278 275 269 268 267 266 265 265 265 267 267 263 263 261 259 258 254 255 256 256
288 286 286 285 284 285 283 281 280 283 285 285 288 286 284 284 286 288 290 291 288 286 284 278 274 272 271 270 268 266 265 265 264 264 264 266 266 262 259 257 256 256 257
288 287 288 287 284 283 281 279 283 283 282 281 283 285 284 283 285 288 289 289 289 286 282 277 273 273 272 271 269 267 264 263 263 265 265 265 265 265 261 259 259 259 257
289 288 288 288 285 279 278 278 281 281 280 281 281 284 284 284 286 288 290 289 289 285 280 276 274 274 274 272 271 268 264 263 262 263 266 267 266 264 263 260 260 258 257
Height
5895 5894 5893 5892 5892 5891 5891 5890 5890 5889 5889 5889 5888 5888 5887 5887 5886 5886 5886 5886 5886 5885 5885 5885 5885 5885 5885 5884 5884 5884 5884 5884 5884 5883 5883 5883 5884 5884 5885 5885 5886 5886 5887
5894 5893 5892 5892 5891 5891 5890 5889 5889 5889 5888 5888 5887 5887 5886 5886 5885 5885 5885 5885 5885 5884 5884 5884 5884 5884 5884 5883 5883 5882 5882 5882 5882 5882 5882 5881 5882 5883 5884 5884 5885 5885 5886
5892 5892 5891 5891 5890 5890 5889 5888 5888 5887 5887 5886 5886 5885 5885 5885 5884 5884 5884 5884 5884 5883 5883 5883 5883 5882 5882 5882 5881 5880 5880 5880 5881 5880 5879 5879 5880 5881 5882 5883 5884 5885 5885
5891 5891 5890 5890 5889 5888 5888 5887 5886 5886 5885 5885 5885 5884 5884 5883 5883 5883 5882 5882 5882 5882 5882 5881 5881 5881 5881 5880 5880 5879 5879 5879 5879 5879 5878 5878 5879 5880 5880 5881 5882 5883 5884
5890 5889 5889 5888 5888 5887 5886 5885 5885 5885 5884 5884 5883 5883 5882 5882 5881 5881 5881 5881 5881 5881 5880 5880 5880 5879 5879 5879 5879 5878 5878 5878 5878 5877 5877 5877 5878 5878 5879 5880 5880 5882 5883
5888 5888 5887 5887 5886 5885 5885 5884 5883 5883 5883 5882 5882 5881 5881 5880 5880 5880 5880 5880 5880 5879 5879 5879 5878 5878 5878 5877 5877 5877 5877 5877 5876 5876 5876 5876 5876 5877 5877 5878 5879 5880 5881
5887 5886 5886 5885 5884 5884 5883 5882 5882 5881 5881 5881 5880 5880 5879 5879 5878 5878 5878 5878 5878 5878 5877 5877 5877 5876 5876 5876 5875 5876 5875 5875 5875 5875 5875 5875 5875 5875 5875 5876 5876 5878 5879
5885 5884 5884 5883 5883 5882 5881 5880 5880 5880 5879 5879 5879 5878 5878 5877 5877 5877 5876 5876 5876 5876 5876 5875 5875 5874 5874 5874 5874 5874 5873 5873 5873 5873 5873 5873 5873 5874 5874 5874 5876 5876 5878
5882 5882 5882 5881 5881 5880 5879 5879 5878 5878 5877 5877 5877 5876 5876 5876 5875 5875 5875 5874 5874 5874 5873 5873 5873 5872 5872 5871 5872 5872 5872 5871 5871 5871 5872 5871 5872 5872 5873 5873 5874 5874 5875
5880 5880 5880 5879 5879 5878 5877 5876 5876 5876 5875 5875 5874 5874 5874 5873 5873 5873 5872 5872 5872 5871 5871 5871 5870 5870 5869 5869 5869 5869 5869 5869 5869 5870 5870 5870 5870 5870 5871 5871 5872 5872 5873
5879 5878 5878 5877 5877 5876 5875 5874 5873 5873 5873 5872 5872 5871 5871 5871 5871 5870 5870 5870 5870 5869 5869 5868 5867 5867 5867 5867 5867 5867 5867 5867 5867 5867 5868 5868 5868 5868 5868 5869 5870 5870 5871
5877 5876 5875 5875 5874 5873 5872 5871 5871 5870 5870 5870 5869 5869 5869 5868 5868 5868 5867 5867 5867 5866 5866 5865 5865 5864 5864 5864 5864 5864 5864 5865 5865 5865 5865 5866 5866 5866 5866 5867 5867 5868 5869
5874 5873 5873 5872 5871 5870 5869 5869 5868 5868 5867 5867 5866 5866 5866 5866 5865 5865 5864 5864 5863 5863 5862 5862 5861 5861 5861 5861 5861 5861 5862 5862 5862 5863 5863 5863 5863 5864 5864 5864 5865 5866 5866
5872 5870 5870 5869 5868 5867 5867 5866 5866 5865 5864 5864 5864 5863 5863 5863 5863 5862 5861 5860 5860 5859 5859 5858 5858 5858 5858 5858 5858 5859 5859 5860 5860 5860 5861 5861 5861 5861 5862 5862 5862 5863 5863
5869 5867 5867 5866 5866 5865 5864 5863 5863 5862 5861 5861 5861 5861 5861 5860 5860 5859 5858 5857 5857 5856 5855 5855 5854 5854 5854 5854 5855 5855 5856 5856 5857 5857 5858 5858 5858 5858 5859 5859 5859 5859 5859
5866 5865 5865 5864 5863 5863 5861 5861 5860 5860 5859 5859 5858 5858 5858 5857 5857 5856 5855 5854 5853 5852 5852 5851 5850 5850 5850 5850 5851 5851 5852 5852 5853 5854 5854 5855 5855 5855 5855 5855 5856 5856 5856
5863 5863 5862 5861 5860 5859 5859 5857 5857 5857 5856 5856 5856 5855 5854 5854 5853 5853 5852 5851 5850 5849 5848 5847 5846 5846 5846 5846 5847 5847 5848 5848 5849 5850 5850 5851 5851 5852 5851 5851 5852 5852 5853
5861 5860 5859 5859 5858 5856 5855 5854 5854 5854 5853 5853 5853 5852 5851 5850 5850 5849 5848 5847 5846 5844 5843 5842 5842 5842 5842 5842 5843 5843 5844 5844 5845 5845 5846 5846 5847 5847 5847 5847 5848 5848 5849
5859 5858 5857 5855 5854 5853 5852 5850 5850 5851 5850 5850 5849 5849 5848 5847 5846 5846 5845 5843 5841 5840 5839 5838 5838 5838 5838 5838 5839 5839 5839 5839 5840 5841 5841 5842 5842 5843 5843 5843 5843 5844 5845
5855 5855 5854 5853 5851 5850 5849 5848 5848 5847 5847 5846 5846 5845 5844 5844 5843 5842 5841 5839 5838 5836 5835 5835 5834 5834 5834 5834 5835 5835 5835 5835 5836 5836 5837 5837 5837 5838 5838 5838 5839 5839 5840
5852 5851 5851 5850 5848 5847 5846 5845 5844 5844 5844 5843 5842 5842 5841 5840 5839 5838 5837 5836 5834 5832 5831 5831 5830 5830 5830 5830 5831 5831 5831 5831 5831 5832 5832 5832 5832 5832 5833 5833 5834 5834 5835
5848 5848 5847 5846 5845 5844 5842 5842 5841 5840 5839 5839 5839 5838 5837 5836 5835 5834 5833 5831 5830 5828 5828 5827 5827 5826 5826 5826 5826 5826 5827 5827 5827 5827 5827 5827 5827 5827 5827 5828 5828 5829 5830
5844 5844 5843 5842 5841 5840 5839 5839 5838 5837 5836 5836 5835 5834 5833 5832 5831 5830 5829 5827 5826 5825 5824 5823 5823 5822 5822 5822 5822 5822 5822 5822 5822 5822 5822 5822 5822 5822 5822 5823 5824 5824 5825
5840 5840 5839 5838 5837 5836 5835 5835 5834 5834 5832 5832 5832 5830 5829 5828 5827 5826 5825 5823 5822 5820 5819 5819 5818 5818 5818 5818 5817 5817 5818 5817 5817 5817 5817 5817 5816 5817 5817 5818 5819 5819 5819
5836 5836 5835 5834 5833 5832 5831 5831 5830 5829 5829 5828 5828 5827 5826 5824 5823 5822 5821 5819 5818 5816 5815 5815 5814 5814 5813 5813 5813 5812 5812 5812 5812 5812 5812 5812 5812 5811 5812 5812 5813 5814 5814
5832 5832 5831 5830 5829 5828 5828 5827 5826 5826 5825 5824 5823 5823 5822 5820 5819 5818 5816 5815 5814 5812 5811 5810 5810 5809 5809 5808 5808 5808 5807 5807 5807 5807 5807 5807 5807 5807 5806 5807 5807 5808 5808